Вернуться в каталог

STARLINK-34470

АктивенСвязьVLEO
NORAD 64703·PAYLOAD·🇺🇸 United States

Запущен Jun 28, 2025 с Vandenberg Space Force Base

Loading…

Ближайшие Пролёты (ближайшие 24 часа)

TLE

СвежийSource: CelesTrak SupGP

Эпоха: Sep 14, 2026, 21:14 UTC

1 64703C 25142H   26257.88520833 -.00006699  00000+0 -23293-3 0  2573
2 64703  70.0016 195.9131 0003011 265.4571 242.4321 15.29598430    15

Отслеживайте STARLINK-34470 в реальном времени с AllMySat

Download on the App Store